contact:dominique.lefevre@mio.osupytheas.fr, maurice.libes@osupytheas.fr, didier.mallarino@osupytheas.fr
Project:EMSO http://www.emso-fr.org/EMSO-France
Depth: 2436.0 m
Title:EMSO Ligure Ouest : Data MII capteur AQUADOPP
Date,Latitude,Longitude,X_East,Y_North,Z_Up,Amplitude_X,Amplitude_Y,Amplitude_Z,Batterie,SoundSpeed,Heading,Pitch,Roll,Pressure,TIS,Speed,Direction
, degrees North, degrees East, m.s-1, m.s-1,m.s-1, 1, 1, 1, Volt, m.s-1, degree, degree, degree, dbar, degree_C, m.s-1, degree
2021-10-24T00:04:03,42.805,6.029,-0.011,-0.012,-0.042,101.0,102.0,101.0,13.4,1505.2,329.7,-0.8,1.8,2470.658,13.28,0.016,222.5
2021-10-24T00:07:03,42.805,6.029,-0.015,-0.019,-0.035,102.0,102.0,101.0,13.4,1505.2,327.1,-0.7,1.8,2470.642,13.28,0.024,218.3
2021-10-24T00:10:03,42.805,6.029,-0.027,-0.019,-0.055,103.0,100.0,101.0,13.4,1505.2,329.0,-0.7,1.8,2470.624,13.28,0.033,234.9
2021-10-24T00:13:03,42.805,6.029,-0.01,-0.027,-0.053,100.0,103.0,101.0,13.3,1505.2,328.1,-0.7,1.8,2470.678,13.28,0.028,200.3
2021-10-24T00:16:03,42.805,6.029,-0.013,-0.024,-0.04,102.0,102.0,101.0,13.3,1505.2,326.6,-0.7,1.9,2470.67,13.28,0.027,208.4
2021-10-24T00:19:03,42.805,6.029,-0.011,-0.008,-0.023,103.0,100.0,101.0,13.4,1505.2,325.9,-0.8,1.8,2470.644,13.28,0.013,234.0
2021-10-24T00:22:03,42.805,6.029,-0.036,-0.028,-0.033,102.0,101.0,101.0,13.4,1505.2,329.4,-0.8,1.8,2470.62,13.28,0.045,232.1
2021-10-24T00:25:03,42.805,6.029,-0.003,-0.024,-0.038,102.0,101.0,101.0,13.4,1505.2,330.2,-0.7,1.8,2470.644,13.28,0.024,187.1
2021-10-24T00:28:03,42.805,6.029,-0.02,0.019,-0.024,102.0,102.0,100.0,13.3,1505.2,325.7,-0.8,1.8,2470.644,13.28,0.027,313.5
2021-10-24T00:31:03,42.805,6.029,-0.025,-0.006,-0.018,101.0,101.0,102.0,13.4,1505.2,331.3,-0.8,1.8,2470.589,13.28,0.025,256.5
2021-10-24T00:34:03,42.805,6.029,-0.027,-0.031,-0.041,103.0,101.0,101.0,13.4,1505.2,328.3,-0.7,1.8,2470.591,13.28,0.041,221.1
2021-10-24T00:37:03,42.805,6.029,-0.013,-0.021,-0.029,102.0,101.0,101.0,13.4,1505.2,329.2,-0.7,1.9,2470.629,13.28,0.024,211.8
2021-10-24T00:40:03,42.805,6.029,-0.033,0.021,0.023,102.0,101.0,101.0,13.4,1505.2,329.8,-0.8,1.8,2470.643,13.28,0.039,302.5
2021-10-24T00:43:03,42.805,6.029,-0.031,-0.022,-0.048,102.0,101.0,101.0,13.4,1505.2,329.8,-0.8,1.8,2470.622,13.28,0.038,234.6
2021-10-24T00:46:03,42.805,6.029,-0.027,-0.02,-0.036,102.0,102.0,102.0,13.4,1505.2,325.9,-0.8,1.8,2470.612,13.28,0.033,233.5
2021-10-24T00:49:03,42.805,6.029,-0.032,-0.015,-0.005,102.0,102.0,102.0,13.4,1505.2,327.2,-0.7,1.8,2470.566,13.28,0.035,244.9
2021-10-24T00:52:03,42.805,6.029,-0.035,-0.022,-0.013,103.0,102.0,101.0,13.4,1505.2,328.4,-0.8,1.8,2470.576,13.28,0.041,237.8
2021-10-24T00:55:03,42.805,6.029,-0.029,-0.015,-0.017,101.0,102.0,101.0,13.3,1505.2,329.6,-0.7,1.8,2470.582,13.28,0.032,242.6
2021-10-24T00:58:03,42.805,6.029,-0.04,-0.037,-0.056,101.0,102.0,101.0,13.4,1505.2,327.7,-0.7,1.8,2470.618,13.28,0.054,227.2
2021-10-24T01:04:03,42.805,6.029,-0.033,-0.03,-0.019,102.0,102.0,102.0,13.3,1505.2,329.9,-0.8,1.9,2470.637,13.28,0.044,227.7
2021-10-24T01:07:03,42.805,6.029,-0.006,-0.01,-0.001,103.0,103.0,101.0,13.3,1505.2,327.3,-0.7,1.8,2470.618,13.28,0.011,211.0
2021-10-24T01:10:03,42.805,6.029,-0.031,-0.021,-0.052,101.0,103.0,103.0,13.3,1505.2,326.9,-0.7,1.8,2470.583,13.28,0.037,235.9
2021-10-24T01:13:02,42.805,6.029,-0.051,-0.02,-0.012,102.0,101.0,101.0,13.4,1505.2,328.2,-0.8,1.8,2470.57,13.28,0.054,248.6
2021-10-24T01:16:03,42.805,6.029,-0.035,-0.024,-0.044,102.0,101.0,101.0,13.4,1505.2,329.1,-0.8,1.8,2470.586,13.28,0.042,235.6
2021-10-24T01:19:03,42.805,6.029,-0.025,0.009,-0.011,102.0,102.0,101.0,13.3,1505.2,325.2,-0.8,1.9,2470.605,13.28,0.026,289.8
2021-10-24T01:22:03,42.805,6.029,-0.019,-0.006,-0.028,100.0,102.0,102.0,13.4,1505.2,327.2,-0.7,1.8,2470.615,13.28,0.019,252.5
2021-10-24T01:25:03,42.805,6.029,-0.022,-0.024,-0.004,103.0,102.0,100.0,13.4,1505.2,325.5,-0.7,1.8,2470.591,13.28,0.032,222.5
2021-10-24T01:28:03,42.805,6.029,-0.019,-0.009,-0.036,102.0,103.0,99.0,13.3,1505.2,329.0,-0.8,1.8,2470.64,13.28,0.021,244.7
2021-10-24T01:31:03,42.805,6.029,-0.017,-0.013,-0.038,101.0,101.0,100.0,13.3,1505.2,329.5,-0.7,1.8,2470.583,13.28,0.021,232.6
2021-10-24T01:34:03,42.805,6.029,-0.018,-0.01,-0.05,104.0,101.0,102.0,13.3,1505.2,331.2,-0.8,1.8,2470.55,13.28,0.02,240.9
2021-10-24T01:37:03,42.805,6.029,-0.022,-0.022,-0.05,103.0,100.0,102.0,13.4,1505.2,326.3,-0.8,1.8,2470.561,13.28,0.031,225.0
2021-10-24T01:40:03,42.805,6.029,-0.021,-0.013,-0.032,102.0,101.0,101.0,13.4,1505.2,327.0,-0.7,1.8,2470.593,13.28,0.024,238.2
2021-10-24T01:43:03,42.805,6.029,-0.031,-0.027,-0.027,102.0,101.0,101.0,13.3,1505.2,329.7,-0.8,1.8,2470.578,13.28,0.041,228.9
2021-10-24T01:46:03,42.805,6.029,-0.008,-0.033,-0.033,103.0,100.0,101.0,13.4,1505.2,329.3,-0.7,1.9,2470.57,13.28,0.033,193.6
2021-10-24T01:49:03,42.805,6.029,-0.029,-0.014,-0.041,101.0,101.0,102.0,13.3,1505.2,331.3,-0.7,1.8,2470.576,13.28,0.032,244.2
2021-10-24T01:52:03,42.805,6.029,-0.009,-0.018,-0.025,102.0,101.0,102.0,13.4,1505.2,326.0,-0.7,1.8,2470.55,13.28,0.02,206.6
2021-10-24T01:55:03,42.805,6.029,-0.01,-0.023,-0.038,101.0,102.0,101.0,13.4,1505.2,325.3,-0.7,1.8,2470.532,13.28,0.025,203.5
2021-10-24T01:58:03,42.805,6.029,-0.034,-0.021,-0.071,101.0,102.0,100.0,13.3,1505.2,331.5,-0.8,1.9,2470.576,13.28,0.039,238.3
2021-10-24T02:04:03,42.805,6.029,-0.01,-0.024,-0.011,102.0,101.0,101.0,13.4,1505.2,328.8,-0.8,1.8,2470.591,13.28,0.026,202.6
2021-10-24T02:07:03,42.805,6.029,-0.051,-0.017,-0.026,103.0,101.0,102.0,13.4,1505.2,329.4,-0.7,1.8,2470.584,13.28,0.053,251.6
2021-10-24T02:10:03,42.805,6.029,-0.043,0.0,-0.032,103.0,102.0,101.0,13.4,1505.2,329.5,-0.8,1.8,2470.623,13.28,0.043,270.0
2021-10-24T02:13:03,42.805,6.029,-0.034,-0.004,-0.044,101.0,103.0,101.0,13.4,1505.2,325.6,-0.8,1.9,2470.632,13.28,0.034,263.3
2021-10-24T02:16:03,42.805,6.029,-0.027,-0.021,-0.037,102.0,102.0,102.0,13.4,1505.2,327.1,-0.7,1.8,2470.572,13.28,0.034,232.1
2021-10-24T02:19:03,42.805,6.029,-0.037,-0.008,-0.05,102.0,101.0,101.0,13.4,1505.2,328.0,-0.7,1.8,2470.593,13.28,0.037,257.8
2021-10-24T02:22:03,42.805,6.029,-0.008,-0.03,-0.039,103.0,102.0,101.0,13.4,1505.2,327.3,-0.7,1.8,2470.571,13.28,0.031,194.9
2021-10-24T02:25:03,42.805,6.029,-0.009,-0.012,-0.04,102.0,101.0,102.0,13.3,1505.2,327.3,-0.7,1.8,2470.598,13.28,0.015,216.9
2021-10-24T02:28:03,42.805,6.029,-0.02,-0.007,-0.006,102.0,102.0,101.0,13.4,1505.2,329.7,-0.7,1.8,2470.572,13.28,0.021,250.7
2021-10-24T02:31:03,42.805,6.029,-0.055,-0.015,-0.019,102.0,101.0,101.0,13.3,1505.2,328.9,-0.8,1.8,2470.554,13.28,0.057,254.7
2021-10-24T02:34:03,42.805,6.029,-0.029,-0.02,0.006,101.0,101.0,102.0,13.4,1505.2,330.2,-0.8,1.8,2470.574,13.28,0.035,235.4
2021-10-24T02:37:03,42.805,6.029,-0.016,-0.003,-0.017,103.0,101.0,101.0,13.4,1505.2,331.2,-0.7,1.8,2470.55,13.28,0.016,259.4
2021-10-24T02:40:03,42.805,6.029,-0.031,-0.013,-0.063,102.0,101.0,102.0,13.4,1505.2,329.3,-0.7,1.8,2470.538,13.28,0.033,247.3
2021-10-24T02:43:03,42.805,6.029,-0.025,-0.011,-0.008,101.0,102.0,102.0,13.4,1505.2,328.3,-0.8,1.8,2470.566,13.28,0.027,246.3
2021-10-24T02:46:03,42.805,6.029,-0.012,-0.012,-0.013,100.0,103.0,102.0,13.4,1505.2,329.8,-0.7,1.9,2470.582,13.28,0.016,225.0
2021-10-24T02:49:03,42.805,6.029,-0.021,-0.016,-0.032,102.0,102.0,101.0,13.4,1505.2,327.5,-0.8,1.8,2470.542,13.28,0.026,232.7
2021-10-24T02:52:03,42.805,6.029,-0.032,-0.019,-0.029,101.0,102.0,101.0,13.4,1505.2,326.1,-0.8,1.8,2470.564,13.28,0.037,239.3
2021-10-24T02:55:03,42.805,6.029,-0.042,-0.011,-0.011,102.0,102.0,101.0,13.4,1505.2,332.0,-0.7,1.8,2470.542,13.28,0.043,255.3
2021-10-24T02:58:03,42.805,6.029,-0.046,-0.014,-0.033,104.0,100.0,101.0,13.3,1505.2,329.2,-0.7,1.8,2470.53,13.28,0.048,253.1
2021-10-24T03:04:03,42.805,6.029,-0.029,-0.007,-0.03,102.0,102.0,101.0,13.3,1505.2,328.9,-0.7,1.8,2470.576,13.28,0.029,256.4
2021-10-24T03:07:03,42.805,6.029,-0.003,-0.027,-0.026,103.0,99.0,101.0,13.4,1505.2,329.2,-0.7,1.8,2470.594,13.28,0.027,186.3
2021-10-24T03:10:03,42.805,6.029,-0.02,-0.01,-0.02,101.0,101.0,102.0,13.3,1505.2,326.6,-0.8,1.8,2470.606,13.28,0.022,243.4
2021-10-24T03:13:03,42.805,6.029,-0.042,-0.009,-0.022,103.0,101.0,102.0,13.4,1505.2,329.3,-0.7,1.9,2470.532,13.28,0.042,257.9
2021-10-24T03:16:03,42.805,6.029,-0.03,-0.025,-0.042,102.0,101.0,101.0,13.3,1505.2,325.3,-0.8,1.8,2470.536,13.28,0.039,230.2
2021-10-24T03:19:03,42.805,6.029,-0.052,-0.001,-0.007,102.0,100.0,102.0,13.3,1505.2,328.8,-0.8,1.8,2470.56,13.28,0.052,268.9
2021-10-24T03:22:03,42.805,6.029,-0.05,-0.009,-0.054,101.0,102.0,100.0,13.4,1505.2,331.8,-0.8,1.9,2470.568,13.28,0.05,259.8
2021-10-24T03:25:03,42.805,6.029,-0.054,-0.013,-0.066,102.0,101.0,101.0,13.4,1505.2,329.3,-0.8,1.8,2470.591,13.28,0.055,256.5
2021-10-24T03:28:03,42.805,6.029,-0.031,-0.009,-0.016,102.0,101.0,101.0,13.4,1505.2,325.8,-0.7,1.8,2470.566,13.28,0.032,253.8
2021-10-24T03:31:03,42.805,6.029,-0.028,-0.034,0.007,101.0,102.0,100.0,13.3,1505.2,327.4,-0.7,1.8,2470.565,13.28,0.044,219.5
2021-10-24T03:34:03,42.805,6.029,-0.033,-0.002,-0.035,103.0,102.0,100.0,13.3,1505.2,332.0,-0.8,1.8,2470.577,13.28,0.033,266.5
2021-10-24T03:37:03,42.805,6.029,-0.02,-0.02,-0.021,102.0,101.0,101.0,13.4,1505.2,326.6,-0.8,1.8,2470.545,13.28,0.028,225.0
2021-10-24T03:40:03,42.805,6.029,-0.035,-0.024,-0.026,101.0,101.0,102.0,13.3,1505.2,328.2,-0.7,1.8,2470.563,13.28,0.042,235.6
2021-10-24T03:43:03,42.805,6.029,-0.021,-0.022,-0.024,101.0,102.0,102.0,13.3,1505.2,329.1,-0.7,1.8,2470.553,13.28,0.03,223.7
2021-10-24T03:46:03,42.805,6.029,-0.023,-0.01,-0.023,101.0,101.0,101.0,13.4,1505.2,326.5,-0.7,1.8,2470.565,13.28,0.025,246.5
2021-10-24T03:49:03,42.805,6.029,-0.044,0.001,-0.024,102.0,101.0,101.0,13.4,1505.2,327.9,-0.8,1.8,2470.57,13.28,0.044,271.3
2021-10-24T03:52:03,42.805,6.029,-0.018,-0.014,-0.016,101.0,101.0,101.0,13.3,1505.2,328.4,-0.7,1.8,2470.549,13.28,0.022,232.1
2021-10-24T03:55:03,42.805,6.029,-0.02,-0.028,-0.039,102.0,102.0,101.0,13.4,1505.2,327.2,-0.7,1.8,2470.571,13.28,0.034,215.5
2021-10-24T03:58:03,42.805,6.029,-0.043,0.0,-0.038,103.0,102.0,99.0,13.4,1505.2,327.4,-0.7,1.8,2470.595,13.28,0.043,270.0
2021-10-24T04:04:03,42.805,6.029,-0.059,-0.008,-0.03,102.0,101.0,101.0,13.4,1505.2,325.2,-0.7,1.8,2470.63,13.28,0.059,262.3
2021-10-24T04:07:03,42.805,6.029,-0.038,0.0,-0.03,101.0,101.0,101.0,13.3,1505.2,331.0,-0.8,1.8,2470.591,13.28,0.038,270.0
2021-10-24T04:10:03,42.805,6.029,-0.022,0.003,-0.054,101.0,102.0,101.0,13.3,1505.2,328.8,-0.7,1.8,2470.609,13.28,0.022,277.8
2021-10-24T04:13:03,42.805,6.029,-0.03,-0.02,-0.025,103.0,103.0,99.0,13.3,1505.2,328.3,-0.7,1.8,2470.638,13.28,0.036,236.3
2021-10-24T04:16:03,42.805,6.029,-0.04,-0.027,-0.036,102.0,101.0,102.0,13.3,1505.2,328.8,-0.8,1.8,2470.577,13.28,0.048,236.0
2021-10-24T04:19:03,42.805,6.029,-0.024,-0.017,-0.048,101.0,102.0,101.0,13.4,1505.2,329.7,-0.8,1.9,2470.588,13.28,0.029,234.7
2021-10-24T04:22:03,42.805,6.029,-0.032,-0.018,-0.032,101.0,102.0,101.0,13.4,1505.2,326.3,-0.8,1.8,2470.571,13.28,0.036,240.6
2021-10-24T04:25:03,42.805,6.029,-0.014,-0.025,-0.009,102.0,103.0,100.0,13.3,1505.2,329.4,-0.7,1.8,2470.6,13.28,0.028,209.3
2021-10-24T04:28:03,42.805,6.029,-0.019,-0.017,-0.045,103.0,102.0,100.0,13.4,1505.2,327.6,-0.8,1.8,2470.566,13.28,0.025,228.2
2021-10-24T04:31:03,42.805,6.029,-0.012,-0.009,-0.015,102.0,101.0,101.0,13.4,1505.2,327.2,-0.7,1.8,2470.618,13.28,0.015,233.1
2021-10-24T04:34:03,42.805,6.029,-0.045,0.0,-0.037,101.0,102.0,100.0,13.3,1505.2,328.6,-0.7,1.8,2470.62,13.28,0.045,270.0
2021-10-24T04:37:03,42.805,6.029,-0.016,-0.032,-0.056,103.0,101.0,102.0,13.4,1505.2,326.4,-0.8,1.8,2470.56,13.28,0.035,206.6
2021-10-24T04:40:03,42.805,6.029,-0.038,-0.033,-0.046,102.0,102.0,100.0,13.3,1505.2,325.8,-0.8,1.8,2470.578,13.28,0.05,229.0
2021-10-24T04:43:03,42.805,6.029,-0.019,-0.025,-0.065,102.0,100.0,101.0,13.4,1505.2,326.3,-0.8,1.8,2470.576,13.28,0.031,217.2
2021-10-24T04:46:03,42.805,6.029,-0.039,-0.003,-0.026,101.0,101.0,100.0,13.3,1505.2,328.4,-0.8,1.9,2470.579,13.28,0.039,265.6
2021-10-24T04:49:03,42.805,6.029,-0.04,0.002,-0.019,103.0,100.0,101.0,13.3,1505.2,325.5,-0.8,1.8,2470.571,13.28,0.04,272.9
2021-10-24T04:52:03,42.805,6.029,-0.035,-0.006,-0.027,101.0,101.0,101.0,13.3,1505.2,330.9,-0.8,1.8,2470.584,13.28,0.035,260.3
2021-10-24T04:55:03,42.805,6.029,-0.029,-0.01,-0.021,103.0,101.0,100.0,13.4,1505.2,328.5,-0.7,1.8,2470.577,13.28,0.03,251.0
2021-10-24T04:58:03,42.805,6.029,-0.015,0.001,-0.043,103.0,101.0,100.0,13.3,1505.2,330.2,-0.8,1.9,2470.612,13.28,0.015,273.8
2021-10-24T05:04:03,42.805,6.029,-0.041,-0.016,-0.059,101.0,101.0,100.0,13.4,1505.2,328.6,-0.7,1.8,2470.637,13.28,0.044,248.7
2021-10-24T05:07:03,42.805,6.029,-0.027,-0.001,-0.02,101.0,100.0,100.0,13.4,1505.2,331.2,-0.7,1.8,2470.629,13.28,0.027,267.9
2021-10-24T05:10:03,42.805,6.029,-0.024,-0.024,-0.03,102.0,101.0,101.0,13.4,1505.2,329.7,-0.7,1.8,2470.669,13.28,0.033,225.0
2021-10-24T05:13:03,42.805,6.029,-0.043,0.01,-0.022,101.0,101.0,100.0,13.3,1505.2,328.8,-0.8,1.8,2470.637,13.28,0.044,283.1
2021-10-24T05:16:03,42.805,6.029,0.0,-0.009,-0.036,101.0,101.0,101.0,13.4,1505.2,327.8,-0.8,1.8,2470.599,13.28,0.009,180.0
2021-10-24T05:19:03,42.805,6.029,-0.024,-0.025,-0.033,101.0,100.0,101.0,13.4,1505.2,328.9,-0.7,1.8,2470.628,13.28,0.034,223.8
2021-10-24T05:22:03,42.805,6.029,-0.053,-0.015,-0.05,101.0,100.0,102.0,13.4,1505.2,331.4,-0.8,1.8,2470.635,13.28,0.055,254.2
2021-10-24T05:25:03,42.805,6.029,-0.056,-0.003,-0.046,101.0,100.0,100.0,13.4,1505.2,327.7,-0.7,1.8,2470.584,13.28,0.056,266.9
2021-10-24T05:28:03,42.805,6.029,-0.027,-0.016,-0.046,101.0,100.0,101.0,13.3,1505.2,327.1,-0.7,1.8,2470.608,13.28,0.031,239.3
2021-10-24T05:31:03,42.805,6.029,-0.043,-0.007,-0.057,102.0,101.0,100.0,13.3,1505.2,326.3,-0.8,1.8,2470.612,13.28,0.043,260.8
2021-10-24T05:34:03,42.805,6.029,-0.017,-0.003,0.0,101.0,101.0,101.0,13.4,1505.2,330.4,-0.8,1.8,2470.615,13.28,0.017,260.0
2021-10-24T05:37:03,42.805,6.029,-0.04,0.01,-0.034,101.0,101.0,101.0,13.4,1505.2,329.9,-0.8,1.8,2470.59,13.28,0.041,284.0
2021-10-24T05:40:03,42.805,6.029,-0.008,-0.021,-0.047,101.0,100.0,100.0,13.3,1505.2,326.6,-0.8,1.8,2470.622,13.28,0.022,200.9
2021-10-24T05:43:03,42.805,6.029,-0.047,-0.008,-0.054,100.0,102.0,100.0,13.4,1505.2,329.8,-0.8,1.8,2470.624,13.28,0.047,260.3
2021-10-24T05:46:03,42.805,6.029,-0.034,-0.009,-0.032,103.0,101.0,99.0,13.4,1505.2,326.9,-0.8,1.8,2470.634,13.28,0.035,255.2
2021-10-24T05:49:03,42.805,6.029,-0.03,-0.031,-0.01,101.0,102.0,101.0,13.3,1505.2,325.8,-0.7,1.8,2470.595,13.28,0.043,224.1
2021-10-24T05:52:03,42.805,6.029,-0.022,0.002,-0.008,101.0,102.0,100.0,13.4,1505.2,330.3,-0.8,1.8,2470.644,13.28,0.022,275.2
2021-10-24T05:55:03,42.805,6.029,-0.014,-0.011,-0.006,100.0,103.0,101.0,13.3,1505.2,329.0,-0.7,1.8,2470.586,13.28,0.017,231.8
2021-10-24T05:58:03,42.805,6.029,-0.029,0.008,-0.017,101.0,101.0,101.0,13.4,1505.2,331.3,-0.8,1.8,2470.606,13.28,0.03,285.4
2021-10-24T06:04:03,42.805,6.029,-0.014,-0.004,0.02,101.0,101.0,101.0,13.3,1505.2,327.2,-0.8,1.8,2470.685,13.28,0.014,254.1
2021-10-24T06:07:03,42.805,6.029,-0.042,-0.011,-0.024,101.0,100.0,101.0,13.3,1505.2,329.8,-0.8,1.8,2470.656,13.28,0.043,255.3
2021-10-24T06:10:03,42.805,6.029,-0.023,-0.006,-0.031,101.0,100.0,100.0,13.4,1505.2,329.0,-0.8,1.8,2470.646,13.28,0.023,255.4
2021-10-24T06:13:03,42.805,6.029,-0.026,-0.013,-0.037,100.0,102.0,101.0,13.4,1505.2,325.2,-0.8,1.8,2470.636,13.28,0.029,243.4
2021-10-24T06:16:03,42.805,6.029,-0.048,-0.025,-0.063,102.0,100.0,100.0,13.4,1505.2,331.0,-0.7,1.8,2470.661,13.28,0.054,242.5
2021-10-24T06:19:03,42.805,6.029,-0.024,0.001,-0.01,102.0,101.0,101.0,13.3,1505.2,331.0,-0.8,1.9,2470.661,13.28,0.024,272.4
2021-10-24T06:22:03,42.805,6.029,-0.062,0.006,-0.029,101.0,101.0,101.0,13.3,1505.2,329.5,-0.8,1.8,2470.657,13.28,0.062,275.5
2021-10-24T06:25:03,42.805,6.029,-0.03,-0.006,-0.028,101.0,101.0,101.0,13.3,1505.2,327.2,-0.8,1.8,2470.651,13.28,0.03,258.7
2021-10-24T06:28:03,42.805,6.029,-0.037,0.003,-0.059,102.0,101.0,101.0,13.4,1505.2,331.4,-0.7,1.8,2470.671,13.28,0.037,274.6
2021-10-24T06:31:03,42.805,6.029,-0.018,-0.007,-0.011,101.0,100.0,101.0,13.4,1505.2,325.4,-0.8,1.8,2470.646,13.28,0.019,248.8
2021-10-24T06:34:03,42.805,6.029,-0.022,-0.008,-0.026,102.0,100.0,101.0,13.4,1505.2,328.9,-0.7,1.8,2470.674,13.28,0.023,250.0
2021-10-24T06:37:03,42.805,6.029,-0.029,-0.037,-0.046,100.0,102.0,101.0,13.3,1505.2,329.5,-0.7,1.8,2470.686,13.28,0.047,218.1
2021-10-24T06:40:03,42.805,6.029,-0.01,-0.005,-0.05,102.0,101.0,100.0,13.4,1505.2,326.1,-0.8,1.9,2470.637,13.28,0.011,243.4
2021-10-24T06:43:03,42.805,6.029,0.018,0.0,-0.039,102.0,101.0,100.0,13.4,1505.2,328.0,-0.8,1.8,2470.69,13.28,0.018,90.0
2021-10-24T06:46:03,42.805,6.029,-0.008,-0.007,-0.017,100.0,102.0,101.0,13.4,1505.2,331.4,-0.8,1.8,2470.655,13.28,0.01,228.8
2021-10-24T06:49:03,42.805,6.029,-0.025,-0.004,-0.028,101.0,101.0,101.0,13.3,1505.2,327.6,-0.7,1.8,2470.676,13.28,0.025,260.9
2021-10-24T06:52:03,42.805,6.029,-0.024,0.007,-0.027,101.0,100.0,102.0,13.4,1505.2,327.8,-0.7,1.8,2470.646,13.28,0.025,286.3
2021-10-24T06:55:03,42.805,6.029,-0.016,-0.018,-0.02,101.0,102.0,101.0,13.4,1505.2,326.2,-0.8,1.8,2470.691,13.28,0.024,221.6
2021-10-24T06:58:03,42.805,6.029,-0.034,0.008,-0.01,102.0,101.0,102.0,13.4,1505.2,326.6,-0.7,1.9,2470.709,13.28,0.034,283.2
2021-10-24T07:04:03,42.805,6.029,-0.012,-0.012,-0.012,102.0,102.0,101.0,13.3,1505.2,326.2,-0.8,1.8,2470.732,13.28,0.016,225.0
2021-10-24T07:07:03,42.805,6.029,-0.039,-0.022,-0.028,101.0,101.0,101.0,13.4,1505.2,328.2,-0.8,1.8,2470.711,13.28,0.044,240.6
2021-10-24T07:10:03,42.805,6.029,-0.032,-0.019,-0.034,102.0,102.0,100.0,13.3,1505.2,325.4,-0.8,1.9,2470.764,13.28,0.037,239.3
2021-10-24T07:13:03,42.805,6.029,-0.027,-0.011,-0.033,102.0,101.0,101.0,13.4,1505.2,326.8,-0.8,1.8,2470.698,13.28,0.029,247.8
2021-10-24T07:16:03,42.805,6.029,-0.039,-0.009,-0.034,101.0,100.0,101.0,13.3,1505.2,331.0,-0.8,1.9,2470.719,13.28,0.04,257.0
2021-10-24T07:19:03,42.805,6.029,-0.015,-0.006,-0.027,102.0,101.0,101.0,13.4,1505.2,328.2,-0.8,1.9,2470.722,13.28,0.016,248.2
2021-10-24T07:22:03,42.805,6.029,-0.03,-0.012,-0.026,102.0,101.0,101.0,13.3,1505.2,331.2,-0.7,1.8,2470.698,13.28,0.032,248.2
2021-10-24T07:25:03,42.805,6.029,-0.033,0.004,0.0,102.0,102.0,101.0,13.3,1505.2,326.1,-0.8,1.8,2470.736,13.28,0.033,276.9
2021-10-24T07:28:03,42.805,6.029,-0.028,-0.013,-0.026,102.0,101.0,101.0,13.4,1505.2,327.5,-0.8,1.8,2470.737,13.28,0.03,245.1
2021-10-24T07:31:03,42.805,6.029,-0.039,-0.004,-0.033,101.0,101.0,101.0,13.4,1505.2,328.1,-0.8,1.8,2470.746,13.28,0.039,264.1
2021-10-24T07:34:03,42.805,6.029,-0.001,-0.016,-0.018,103.0,100.0,101.0,13.3,1505.2,327.4,-0.7,1.8,2470.698,13.28,0.016,183.6
2021-10-24T07:37:03,42.805,6.029,-0.04,-0.003,-0.041,102.0,101.0,101.0,13.4,1505.2,329.6,-0.8,1.9,2470.753,13.28,0.04,265.7
2021-10-24T07:40:03,42.805,6.029,-0.031,-0.017,-0.033,101.0,101.0,102.0,13.4,1505.2,326.4,-0.7,1.8,2470.731,13.28,0.035,241.3
2021-10-24T07:43:03,42.805,6.029,-0.018,-0.025,-0.034,103.0,100.0,101.0,13.3,1505.2,327.0,-0.7,1.8,2470.742,13.28,0.03,215.8
2021-10-24T07:46:03,42.805,6.029,-0.032,-0.003,-0.015,103.0,101.0,101.0,13.4,1505.2,326.1,-0.8,1.8,2470.693,13.28,0.032,264.6
2021-10-24T07:49:03,42.805,6.029,-0.008,-0.028,-0.005,102.0,101.0,101.0,13.4,1505.2,331.8,-0.7,1.8,2470.713,13.28,0.029,195.9
2021-10-24T07:52:03,42.805,6.029,-0.034,-0.015,-0.024,101.0,101.0,102.0,13.4,1505.2,327.6,-0.7,1.8,2470.726,13.28,0.037,246.2
2021-10-24T07:55:03,42.805,6.029,-0.024,-0.017,-0.019,102.0,101.0,100.0,13.3,1505.2,331.5,-0.7,1.8,2470.783,13.28,0.029,234.7
2021-10-24T07:58:03,42.805,6.029,-0.055,-0.014,-0.044,101.0,102.0,101.0,13.3,1505.2,326.2,-0.8,1.8,2470.761,13.28,0.056,255.7
2021-10-24T08:04:03,42.805,6.029,-0.037,-0.01,-0.036,102.0,102.0,101.0,13.4,1505.2,327.6,-0.8,1.8,2470.744,13.28,0.038,254.9
2021-10-24T08:07:03,42.805,6.029,-0.036,-0.007,-0.055,102.0,101.0,101.0,13.4,1505.2,330.7,-0.7,1.9,2470.781,13.28,0.036,259.0
2021-10-24T08:10:03,42.805,6.029,-0.03,-0.01,-0.041,101.0,103.0,99.0,13.4,1505.2,326.1,-0.8,1.8,2470.798,13.28,0.031,251.6
2021-10-24T08:13:03,42.805,6.029,-0.027,-0.01,-0.038,102.0,100.0,101.0,13.4,1505.2,327.4,-0.7,1.8,2470.732,13.28,0.028,249.7
2021-10-24T08:16:03,42.805,6.029,-0.024,0.0,-0.022,101.0,101.0,101.0,13.4,1505.2,328.1,-0.7,1.8,2470.729,13.28,0.024,270.0
2021-10-24T08:19:03,42.805,6.029,-0.034,-0.026,-0.039,102.0,101.0,101.0,13.3,1505.2,328.4,-0.8,1.8,2470.772,13.28,0.042,232.6
2021-10-24T08:22:03,42.805,6.029,-0.016,-0.029,-0.024,102.0,101.0,101.0,13.3,1505.2,327.7,-0.8,1.8,2470.783,13.28,0.033,208.9
2021-10-24T08:25:03,42.805,6.029,-0.05,-0.012,-0.043,102.0,100.0,102.0,13.3,1505.2,328.1,-0.7,1.8,2470.739,13.28,0.051,256.5
2021-10-24T08:28:03,42.805,6.029,-0.029,-0.028,-0.033,102.0,102.0,100.0,13.4,1505.2,327.7,-0.7,1.8,2470.765,13.28,0.04,226.0
2021-10-24T08:31:03,42.805,6.029,-0.042,-0.01,-0.034,102.0,102.0,101.0,13.4,1505.2,330.1,-0.7,1.8,2470.796,13.28,0.043,256.6
2021-10-24T08:34:03,42.805,6.029,-0.047,0.001,-0.014,100.0,102.0,101.0,13.4,1505.2,328.8,-0.7,1.8,2470.767,13.28,0.047,271.2
2021-10-24T08:37:03,42.805,6.029,-0.026,-0.01,-0.043,102.0,102.0,101.0,13.4,1505.2,331.4,-0.8,1.8,2470.771,13.28,0.027,249.0
2021-10-24T08:40:03,42.805,6.029,-0.024,0.0,-0.011,101.0,102.0,100.0,13.4,1505.2,330.6,-0.7,1.8,2470.764,13.28,0.024,270.0
2021-10-24T08:43:03,42.805,6.029,-0.026,-0.028,-0.027,101.0,103.0,100.0,13.4,1505.2,327.1,-0.7,1.8,2470.805,13.28,0.038,222.9
2021-10-24T08:46:03,42.805,6.029,-0.048,-0.021,-0.03,102.0,102.0,101.0,13.3,1505.2,329.9,-0.7,1.8,2470.736,13.28,0.052,246.4
2021-10-24T08:49:03,42.805,6.029,-0.013,-0.009,-0.022,102.0,102.0,101.0,13.3,1505.2,328.1,-0.7,1.8,2470.719,13.28,0.015,235.3
2021-10-24T08:52:03,42.805,6.029,-0.018,0.0,-0.018,102.0,102.0,101.0,13.3,1505.2,326.0,-0.8,1.8,2470.82,13.28,0.018,270.0
2021-10-24T08:55:03,42.805,6.029,-0.031,0.0,-0.01,102.0,101.0,100.0,13.4,1505.2,327.3,-0.8,1.8,2470.799,13.28,0.03,270.0
2021-10-24T08:58:03,42.805,6.029,-0.042,-0.003,-0.043,103.0,101.0,100.0,13.4,1505.2,328.7,-0.8,1.8,2470.757,13.28,0.042,265.9
2021-10-24T09:04:03,42.805,6.029,-0.022,0.004,-0.001,102.0,101.0,101.0,13.4,1505.2,329.0,-0.8,1.8,2470.777,13.28,0.022,280.3
2021-10-24T09:07:03,42.805,6.029,-0.016,-0.014,-0.016,102.0,102.0,101.0,13.3,1505.2,328.9,-0.7,1.8,2470.802,13.28,0.021,228.8
2021-10-24T09:10:03,42.805,6.029,-0.023,-0.015,-0.022,102.0,102.0,101.0,13.3,1505.2,327.0,-0.7,1.8,2470.777,13.28,0.027,236.9
2021-10-24T09:13:03,42.805,6.029,-0.013,-0.017,-0.068,101.0,102.0,101.0,13.3,1505.2,325.9,-0.7,1.9,2470.769,13.28,0.021,217.4
2021-10-24T09:16:03,42.805,6.029,-0.024,-0.028,-0.029,102.0,99.0,100.0,13.4,1505.2,327.1,-0.7,1.8,2470.72,13.28,0.036,220.6
2021-10-24T09:19:03,42.805,6.029,-0.025,0.006,-0.009,101.0,101.0,101.0,13.4,1505.2,330.9,-0.8,1.8,2470.764,13.28,0.025,283.5
2021-10-24T09:22:03,42.805,6.029,-0.021,-0.011,-0.024,102.0,100.0,100.0,13.4,1505.2,329.8,-0.8,1.9,2470.735,13.28,0.023,242.4
2021-10-24T09:25:03,42.805,6.029,-0.036,-0.023,-0.051,101.0,101.0,102.0,13.4,1505.2,331.3,-0.7,1.8,2470.796,13.28,0.042,237.4
2021-10-24T09:28:03,42.805,6.029,-0.041,-0.011,-0.04,100.0,102.0,102.0,13.3,1505.2,330.0,-0.7,1.8,2470.826,13.28,0.042,255.0
2021-10-24T09:31:03,42.805,6.029,-0.011,-0.004,-0.044,103.0,103.0,99.0,13.4,1505.2,325.7,-0.8,1.8,2470.739,13.28,0.011,250.0
2021-10-24T09:34:03,42.805,6.029,-0.007,-0.001,-0.011,101.0,101.0,102.0,13.4,1505.2,325.9,-0.7,1.8,2470.746,13.28,0.007,261.9
2021-10-24T09:37:03,42.805,6.029,-0.042,-0.004,-0.042,101.0,101.0,102.0,13.4,1505.2,328.0,-0.8,1.9,2470.778,13.28,0.042,264.6
2021-10-24T09:40:03,42.805,6.029,-0.06,0.0,-0.016,102.0,102.0,102.0,13.4,1505.2,331.4,-0.7,1.8,2470.738,13.28,0.06,270.0
2021-10-24T09:43:03,42.805,6.029,-0.031,0.0,-0.029,102.0,102.0,100.0,13.4,1505.2,327.8,-0.7,1.8,2470.71,13.28,0.03,270.0
2021-10-24T09:46:03,42.805,6.029,-0.049,-0.024,-0.042,102.0,102.0,100.0,13.3,1505.2,329.9,-0.7,1.8,2470.776,13.28,0.054,243.9
2021-10-24T09:49:03,42.805,6.029,-0.025,-0.014,-0.048,102.0,102.0,101.0,13.3,1505.2,326.5,-0.7,1.8,2470.726,13.28,0.028,240.7